STARLINK-32410, 61887

Orbit data source: Space-Track

STARLINK-32410, 61887 is a payload satellite owned by SpaceX/Seattle (US) in LEO that was launched on Sat, 09 Nov 2024 UTC via an FALCON 9 launch vehicle from the Air Force Western Test Range (AFWTR). Payload-class satellites include a variety of spacecraft equipped with specific instruments for various scientific and technological missions. These include communications satellites like Starlink; space stations such as the ISS; scientific satellites like the Hubble; Earth observation satellites from companies like Planet Labs, Umbra, and HawkEye 360; GPS; miniature CubeSats for education and research; and military/defense satellites.

Loading next visibility...
Identifier
61887, 2024-204P
Orbit
LEO
Country
Flag of USUS
Related business
Manufacturer
SpaceX/Seattle
Mission
Operational Commercial Communications
Bus & Motor
STARLINK V2M, Unknown motor
Mass
730 kg wet, ~700 kg dry
Launch date (UTC)
2024-11-09 (2 years ago)
Launch vehicle
FALCON 9
Launch site
Air Force Western Test Range (AFWTR)
Object type
Payload
Rocket body
Debris
Shape & HBR
Box + 2 Pan, 17.7 m
Radar Cross Section
33.884 m², Large (>1 m²)

Expand to show TLE details & history
Last TLE update: 1 day ago

TLE from 1 day ago
0 STARLINK-32410
1 61887U 24204P   26170.85492541  .00002086  00000-0  72816-4 0  9990
2 61887  53.1624  10.8276 0001240  99.5914 260.5229 15.34416345 90765
Epoch: 2026-06-19T20:31Z
TLE epoch observation values (Epoch: 2026-06-19T20:31:05.555Z)
Latitude
Longitude
154.97654°
Altitude
463.696 km
Speed
7.636 km/s
True Right ascension
00h 43m 18s
True Declination
0° 00' 00"
Sunlit
Object was in daylight at epoch
Visualization orbit readout
Latitude
Unknown
Longitude
Unknown
Altitude
Unknown
Speed
Unknown
Apparent Right ascension
Unknown
Apparent Declination
Unknown
Sunlit
N/A
Visualization observer readout
Local Sidereal Time
07:13:02
Azimuth
Unknown
Elevation
Unknown
Doppler factor
Unknown
Orbital elements
Apogee altitude
463.759 km
Perigee altitude
462.063 km
Semi-major axis
6,841.048 km
Eccentricity
0.00012
Inclination
53.1624°
RAAN
10.8276°
Arg. of periapsis
99.5914°
True anomaly
260.50888°
Mean anomaly
260.5229°
Eccentric anomaly
260.51589°
Mean motion
3.83583 °/min
Orbital period
93.85 mins
BSTAR
0.000072816
Loading maneuver chart data...
Computing Atmospheric mass density...
Loading historical data...
Loading historical data...
Loading historical data...
Loading historical data...
Loading historical data...
Loading historical data...
Loading historical data...

Documentation

Showing up to 5 results
|